Regional Weather Roundup
Issued by NWS

Home | Current Version | Previous Version | Graphics & Text | Print | Product List | Glossary On
Versions: 1 2 3 4 5 6 7 8 9 10 11 12 13 14 15 16 17 18 19 20 21 22 23 24 25 26 27 28 29 30 31 32 33 34 35 36 37 38 39 40 41 42 43 44 45 46 47 48 49 50
000
ASUS45 KCYS 291910
RWRWY

WYOMING REGIONAL WEATHER ROUNDUP
NATIONAL WEATHER SERVICE CHEYENNE WY
100 PM MDT FRI JUL 29 2016

NOTE:  "FAIR" INDICATES FEW OR NO CLOUDS BELOW 12,000 FEET
WITH NO SIGNIFICANT WEATHER AND/OR OBSTRUCTIONS TO VISIBILITY.

WYZ001-292000-
YELLOWSTONE NATIONAL PARK

CITY           SKY/WX    TMP DP  RH WIND       PRES   REMARKS
LK YELLOWSTONE   N/A     69  48  47 VRB3      30.31F
W YELLOWSTONE  NOT AVBL

$$
WYZ002>013-054>058-071-098>099-292000-
NORTHERN WYOMING

CITY           SKY/WX    TMP DP  RH WIND       PRES   REMARKS
JACKSON        SUNNY     79  39  24 S7G17     30.20F
CODY           FAIR      81  52  36 N12G17    30.11F
GREYBULL       FAIR      86  46  24 E6        30.03F
WORLAND        FAIR      86  47  25 N10       30.04F
SHERIDAN       FAIR      85  46  25 MISG      30.08F
BUFFALO        FAIR      80  44  27 VRB3      30.14F
GILLETTE       FAIR      83  49  30 VRB6      30.10F
HULETT         FAIR      79  50  36 W6        30.12S
NEWCASTLE      FAIR      77  48  36 CALM      30.12F

$$
WYZ014>020-022>026-101>103-292000-
CENTRAL WYOMING

CITY           SKY/WX    TMP DP  RH WIND       PRES   REMARKS
BIG PINEY      FAIR      79  42  26 VRB6      30.25F
PINEDALE       FAIR      77  34  20 CALM      30.26F
DUBOIS         FAIR      79  34  19 W17G25    30.21F
LANDER         FAIR      81  50  33 N7        30.13F
RIVERTON       FAIR      80  50  34 SE8       30.13F
CASPER         FAIR      84  45  25 VRB3      30.12F
DOUGLAS        FAIR      85  46  25 W5        30.12F

$$
WYZ021-027>030-104>119-292000-
SOUTHERN WYOMING

CITY           SKY/WX    TMP DP  RH WIND       PRES   REMARKS
EVANSTON       FAIR      87  30  13 SW15G26   30.26F
KEMMERER         N/A    N/A N/A N/A W20G31    30.26F
FORT BRIDGER   FAIR      89  31  12 W12G28    30.27F
ROCK SPRINGS   FAIR      85  31  14 W13G23    30.22F
DIXON          FAIR      84  34  16 SW6       30.25F
RAWLINS        FAIR      82  36  19 VRB6      30.23F
SARATOGA       FAIR      81  32  17 N8G16     30.25F
LARAMIE        FAIR      78  36  21 VRB5      30.26F
CHEYENNE       FAIR      78  55  44 SE16      30.22F
TORRINGTON     FAIR      84  55  36 SE14G20   30.09F
PINE BLUFFS    FAIR      79  54  41 SE6G16    30.18F

$$



USA.gov is the U.S. government's official web portal to all federal, state and local government web resources and services.